Location: Amberg
(48.0613°N, 10.6820°E)
Time: 00:34:55
(UTC+00:00)

Helios 1A Rocket - Pass Details

Date: 18 November 2025
Orbit: 440 x 452 km, 98.3° (Epoch: 05 December)

Event Time Altitude Azimuth Distance (km) Brightness Sun altitude
Exits shadow 17:14:38 28° 124° (SE) 878 3.5 -16.3°
Drops below altitude 10° 17:16:55 10° 163° (SSE) 1,569 5.1 -16.7°
Sets 17:19:06 0° 174° (S) 2,443 6.2 -17.0°
